User: anonymous   Login
Location: Robert Brownlee Observatory
(34.2308°N, 117.2089°W)
Time: 05:49:02
(UTC-08:00)
Language:

Cosmos 1943 - Orbit

View from above orbital plane
View from above orbital plane
View from above satellite
View from above satellite

Ground track
Ground track

The orbit data is extracted from the following two-line orbital elements,

1 19119U 88039A   16345.57185612 -.00000115  00000-0 -34483-4 0  9998
2 19119  71.0014 137.8726 0012320 334.1157  91.3563 14.15076792475412
Epoch (UTC): 10 December 2016 13:43:28
Eccentricity: 0.0012320
inclination: 71.0014°
perigee height: 833 km
apogee height: 851 km
right ascension of ascending node: 137.8726°
argument of perigee: 334.1157°
revolutions per day: 14.15076792
mean anomaly at epoch: 91.3563°
orbit number at epoch: 47541

The dashed part of the orbit path shows where the satellite is in the earth's shadow,  

DLR